Date String (YYYY-MM-DD hh:mm:ss) UTC,Instrument flags,Ambient pressure (hPa),Sample flow (lpm),Bypass flow (lpm),Sample temperature (°C),Ambient temperature (°C),ASC tube jacket temperature (°C),LED temperature (°C),Box temperature (°C),Sample RH (%),Span deviation,Mass concentration (μg/m³),Mass concentration (μg/m³),Mass concentration (μg/m³)
DateTimeUTC,F1_M11,P_M11,Q1_M11,Q2_M11,T1_M11,T2_M11,T3_M11,T4_M11,T5_M11,U1_M11,ZSPAN_M11,X2_M11,X0_M11,X1_M11
2022-08-20 16:00:00,,0831.2,5.00,0.00,30.3,29.0,00.0,39.1,32.1,24.7,0000.0,0006.59,0015.98,0005.42
2022-08-20 16:01:00,,0831.2,5.00,0.00,30.3,29.1,00.0,39.1,32.2,24.7,0000.0,0006.60,0015.59,0005.41
2022-08-20 16:02:00,,0831.1,5.00,0.00,30.3,29.2,00.0,39.1,32.2,24.8,0000.0,0006.59,0015.76,0005.40
2022-08-20 16:03:00,,0831.1,5.00,0.00,30.4,29.3,00.0,39.1,32.3,24.3,0000.0,0006.58,0015.40,0005.40
2022-08-20 16:04:00,,0831.2,5.00,0.00,30.4,29.3,00.0,39.1,32.3,24.3,0000.0,0006.56,0015.53,0005.40
2022-08-20 16:05:00,,0831.2,5.00,0.00,30.4,29.4,00.0,39.1,32.3,24.7,0000.0,0006.53,0016.39,0005.38
2022-08-20 16:06:00,,0831.2,5.00,0.00,30.4,29.5,00.0,39.2,32.3,24.4,0000.0,0006.44,0016.49,0005.38
2022-08-20 16:07:00,,0831.2,5.00,0.00,30.5,29.5,00.0,39.2,32.4,25.2,0000.0,0006.40,0015.95,0005.38
2022-08-20 16:08:00,,0831.2,4.99,0.00,30.5,29.5,00.0,39.2,32.4,25.2,0000.0,0006.39,0016.45,0005.39
2022-08-20 16:09:00,,0831.2,5.02,0.00,30.5,29.1,00.0,39.2,32.3,25.0,0000.0,0006.38,0016.14,0005.40
2022-08-20 16:10:00,,0831.2,4.99,0.00,30.4,28.3,00.0,39.1,32.0,24.7,0000.0,0006.38,0016.02,0005.41
2022-08-20 16:11:00,,0831.2,5.00,0.00,30.3,27.9,00.0,39.1,32.0,24.6,0000.0,0006.34,0016.21,0005.41
2022-08-20 16:12:00,,0831.2,5.00,0.00,30.3,27.9,00.0,39.1,31.9,24.5,0000.0,0006.33,0016.51,0005.42
2022-08-20 16:13:00,,0831.2,5.00,0.00,30.2,28.0,00.0,39.1,31.9,24.9,0000.0,0006.33,0016.32,0005.42
2022-08-20 16:14:00,,0831.2,5.00,0.00,30.2,28.1,00.0,39.0,31.9,25.2,0000.0,0006.33,0016.08,0005.42
2022-08-20 16:15:00,,0831.2,5.01,0.00,30.2,28.3,00.0,39.0,31.9,25.3,0000.0,0006.39,0015.87,0005.42
2022-08-20 16:16:00,,0831.2,4.99,0.00,30.2,28.4,00.0,39.0,32.0,24.9,0000.0,0006.39,0015.08,0005.42
2022-08-20 16:17:00,,0831.2,5.01,0.00,30.2,28.6,00.0,39.0,32.0,25.3,0000.0,0006.40,0014.58,0005.41
2022-08-20 16:18:00,,0831.1,4.99,0.00,30.2,28.7,00.0,39.0,32.0,25.1,0000.0,0006.41,0014.43,0005.42
2022-08-20 16:19:00,,0831.1,5.00,0.00,30.2,28.8,00.0,39.0,32.0,25.1,0000.0,0006.44,0013.98,0005.44
2022-08-20 16:20:00,,0831.2,4.99,0.00,30.2,28.9,00.0,39.0,32.1,24.9,0000.0,0006.47,0013.91,0005.44
2022-08-20 16:21:00,,0831.2,5.00,0.00,30.2,29.0,00.0,39.0,32.1,24.8,0000.0,0006.50,0014.21,0005.45
2022-08-20 16:22:00,,0831.2,5.00,0.00,30.3,29.1,00.0,39.0,32.1,24.8,0000.0,0006.56,0014.79,0005.46
2022-08-20 16:23:00,,0831.2,5.00,0.00,30.3,29.2,00.0,39.0,32.2,25.1,0000.0,0006.63,0015.37,0005.47
2022-08-20 16:24:00,,0831.1,5.00,0.00,30.3,29.2,00.0,39.0,32.2,24.7,0000.0,0006.64,0016.12,0005.49
2022-08-20 16:25:00,,0831.2,5.01,0.00,30.3,29.3,00.0,39.1,32.2,25.0,0000.0,0006.65,0016.26,0005.50
2022-08-20 16:26:00,,0831.1,5.00,0.00,30.3,29.3,00.0,39.1,32.2,24.8,0000.0,0006.64,0017.32,0005.53
2022-08-20 16:27:00,,0831.2,5.00,0.00,30.4,29.4,00.0,39.1,32.3,24.9,0000.0,0006.68,0018.28,0005.55
2022-08-20 16:28:00,,0831.2,5.00,0.00,30.4,29.4,00.0,39.1,32.3,25.2,0000.0,0006.75,0018.81,0005.59
2022-08-20 16:29:00,,0831.2,4.99,0.00,30.4,29.4,00.0,39.1,32.3,25.1,0000.0,0006.78,0018.88,0005.60
2022-08-20 16:30:00,,0831.2,5.00,0.00,30.4,28.9,00.0,39.1,32.2,25.0,0000.0,0006.77,0019.28,0005.62
2022-08-20 16:31:00,,0831.2,5.00,0.00,30.3,28.1,00.0,39.1,32.0,25.1,0000.0,0006.75,0018.81,0005.64
2022-08-20 16:32:00,,0831.1,4.99,0.00,30.3,27.9,00.0,39.0,31.9,25.5,0000.0,0006.76,0017.96,0005.66
2022-08-20 16:33:00,,0831.1,5.01,0.00,30.2,27.9,00.0,39.0,31.8,25.7,0000.0,0006.73,0017.39,0005.67
2022-08-20 16:34:00,,0831.1,4.99,0.00,30.1,28.0,00.0,39.0,31.8,25.3,0000.0,0006.71,0017.08,0005.68
2022-08-20 16:35:00,,0831.1,5.00,0.00,30.1,28.1,00.0,39.0,31.9,25.2,0000.0,0006.73,0016.38,0005.69
2022-08-20 16:36:00,,0831.1,4.99,0.00,30.1,28.2,00.0,38.9,31.9,25.2,0000.0,0006.74,0016.26,0005.70
2022-08-20 16:37:00,,0831.1,5.00,0.00,30.1,28.4,00.0,38.9,31.9,25.4,0000.0,0006.78,0015.52,0005.72
2022-08-20 16:38:00,,0831.1,4.99,0.00,30.1,28.5,00.0,38.9,32.0,25.6,0000.0,0006.79,0015.43,0005.71
2022-08-20 16:39:00,,0831.1,5.00,0.00,30.1,28.7,00.0,38.9,32.0,26.0,0000.0,0006.74,0014.91,0005.69
2022-08-20 16:40:00,,0831.2,5.01,0.00,30.1,28.8,00.0,38.9,32.0,25.7,0000.0,0006.77,0014.68,0005.69
2022-08-20 16:41:00,,0831.1,5.00,0.00,30.1,28.9,00.0,38.9,32.0,25.7,0000.0,0006.82,0014.32,0005.70
2022-08-20 16:42:00,,0831.1,5.00,0.00,30.2,29.0,00.0,39.0,32.1,25.9,0000.0,0006.88,0014.51,0005.71
2022-08-20 16:43:00,,0831.2,4.99,0.00,30.2,29.1,00.0,39.0,32.1,25.5,0000.0,0006.90,0014.95,0005.71
2022-08-20 16:44:00,,0831.1,5.01,0.00,30.2,29.2,00.0,39.0,32.2,25.8,0000.0,0006.90,0014.79,0005.74
2022-08-20 16:45:00,,0831.1,5.01,0.00,30.3,29.2,00.0,39.0,32.2,26.3,0000.0,0006.92,0014.43,0005.75
2022-08-20 16:46:00,,0831.1,5.00,0.00,30.3,29.3,00.0,39.0,32.2,26.0,0000.0,0006.96,0015.29,0005.77
2022-08-20 16:47:00,,0831.2,5.00,0.00,30.3,29.4,00.0,39.0,32.2,25.6,0000.0,0006.95,0015.25,0005.76
2022-08-20 16:48:00,,0831.2,5.00,0.00,30.3,29.4,00.0,39.0,32.3,25.9,0000.0,0006.96,0015.52,0005.76
2022-08-20 16:49:00,,0831.2,4.99,0.00,30.4,29.3,00.0,39.1,32.2,25.3,0000.0,0007.00,0014.92,0005.77
2022-08-20 16:50:00,,0831.2,4.99,0.00,30.3,28.5,00.0,39.0,32.1,25.6,0000.0,0007.05,0014.78,0005.81
2022-08-20 16:51:00,,0831.2,5.01,0.00,30.3,27.9,00.0,39.0,31.9,25.4,0000.0,0007.03,0014.72,0005.84
2022-08-20 16:52:00,,0831.2,5.01,0.00,30.2,27.8,00.0,39.0,31.9,25.6,0000.0,0007.04,0014.78,0005.86
2022-08-20 16:53:00,,0831.1,5.00,0.00,30.1,27.9,00.0,38.9,31.8,26.2,0000.0,0007.05,0014.76,0005.88
2022-08-20 16:54:00,,0831.1,5.00,0.00,30.1,28.0,00.0,38.9,31.8,26.9,0000.0,0007.08,0014.48,0005.90
2022-08-20 16:55:00,,0831.1,5.01,0.00,30.1,28.1,00.0,38.9,31.8,26.7,0000.0,0007.10,0014.34,0005.91
2022-08-20 16:56:00,,0831.1,4.99,0.00,30.1,28.3,00.0,38.9,31.9,26.6,0000.0,0007.13,0013.82,0005.96
2022-08-20 16:57:00,,0831.1,4.99,0.00,30.1,28.5,00.0,38.9,31.9,27.3,0000.0,0007.18,0013.16,0005.99
2022-08-20 16:58:00,,0831.0,5.01,0.00,30.1,28.6,00.0,38.9,31.9,26.1,0000.0,0007.23,0013.39,0006.02
2022-08-20 16:59:00,,0831.0,5.01,0.00,30.1,28.7,00.0,38.9,32.0,26.1,0000.0,0007.19,0013.05,0006.06
